Regional Weather Roundup
Issued by NWS

Home | Current Version | Previous Version | Text Only | Print | Product List | Glossary Off
Versions: 1 2 3 4 5 6 7 8 9 10 11 12 13 14 15 16 17 18 19 20 21 22 23 24 25 26 27 28 29 30 31 32 33 34 35 36 37 38 39 40 41 42 43 44 45 46 47 48 49 50

000
ASUS43 KOAX 221010
RWRNE

WEATHER ROUNDUP FOR NEBRASKA
NATIONAL WEATHER SERVICE OMAHA NE
500 AM CDT MON SEP 22 2014

NOTES: SATELLITE DATA IS BEING USED TO AUGMENT CLOUD COVER ABOVE
       12000 FEET.
       "FAIR" INDICATES FEW OR NO CLOUDS BELOW 12,000 FEET WITH NO
       SIGNIFICANT WEATHER AND/OR OBSTRUCTIONS TO VISIBILITY.

  * THESE STATIONS DO NOT REPORT WEATHER SUCH AS RAIN...SNOW OR FOG.

NEZ001>004-019>022-054>056-221100-
NEBRASKA PANHANDLE

CITY           SKY/WX    TMP DP  RH WIND       PRES   REMARKS
SCOTTSBLUFF    CLOUDY    57  43  59 E10       30.20F
ALLIANCE       PTCLDY    52  41  66 SE12      30.22F
CHADRON        MOCLDY    63  41  44 S28G35    30.14F
KIMBALL        PTCLDY    54  41  60 S8        30.23S
SIDNEY         MOCLDY    60  40  47 S14       30.26F
$$

NEZ057>060-069>072-079>082-221100-
SOUTHWEST NEBRASKA

CITY           SKY/WX    TMP DP  RH WIND       PRES   REMARKS
NORTH PLATTE   CLOUDY    50  44  80 E7        30.29S
IMPERIAL       CLOUDY    58  41  53 SE9       30.28S
LEXINGTON      PTCLDY    48  46  90 E5        30.30S
MCCOOK         CLEAR     52  44  74 E6        30.29S
OGALLALA       PTCLDY    52  45  78 E3        30.27S
$$

NEZ005>010-023>029-035>040-094-221100-
NORTH CENTRAL NEBRASKA

CITY           SKY/WX    TMP DP  RH WIND       PRES   REMARKS
VALENTINE      PTCLDY    53  42  66 S7        30.25F
AINSWORTH      PTCLDY    45  41  85 S7        30.27S
BROKEN BOW     CLEAR     41  39  93 CALM      30.29S
O`NEILL        CLEAR     47  44  90 S6        30.29S
ORD            PTCLDY    40  38  93 CALM      30.29S
THEDFORD       PTCLDY    54  43  67 S6        30.28S
$$

NEZ041-046>049-061>064-073>077-083>087-221100-
SOUTH CENTRAL NEBRASKA

CITY           SKY/WX    TMP DP  RH WIND       PRES   REMARKS
GRAND ISLAND   CLEAR     47  42  83 CALM      30.30F
AURORA         CLEAR     44  42  92 CALM      30.30S
HASTINGS       CLEAR     46  42  86 CALM      30.30S
HEBRON         CLEAR     43  40  91 CALM      30.31R
HOLDREGE       MOCLDY    49  44  84 CALM      30.30S
KEARNEY *      CLEAR     48  43  81 CALM      30.31R
YORK           CLEAR     46  45  93 CALM      30.31R
$$

NEZ011>018-030>034-042>045-221100-
NORTHEAST NEBRASKA

CITY           SKY/WX    TMP DP  RH WIND       PRES   REMARKS
NORFOLK        CLEAR     42  40  92 CALM      30.29S
ALBION         CLEAR     41  38  89 CALM      30.30S
BLAIR          CLEAR     55  47  74 E5        30.29F
COLUMBUS *     CLEAR     41  37  87 CALM      30.30S
FREMONT        CLEAR     48  46  91 CALM      30.30S
TEKAMAH        MOCLDY    44  42  93 CALM      30.30S FOG
WAYNE          CLEAR     40  39  97 CALM      30.31R
$$

NEZ050>053-065>068-078-088>093-221100-
SOUTHEAST NEBRASKA

CITY           SKY/WX    TMP DP  RH WIND       PRES   REMARKS
LINCOLN        CLEAR     45  42  89 N3        30.31R
OMAHA EPPLEY   CLEAR     49  47  93 CALM      30.30S
BEATRICE       CLEAR     41  39  94 W3        30.30R
FALLS CITY     CLEAR     48  46  93 NW3       30.29R
NEBRASKA CITY    N/A     53  44  70 CALM      30.30S
PLATTSMOUTH    CLEAR     49  46  90 CALM      30.30S
$$

NEZ044-045-051>053-067-221100-
OMAHA AREA

CITY           SKY/WX    TMP DP  RH WIND       PRES   REMARKS
OMAHA EPPLEY   CLEAR     49  47  93 CALM      30.30S
BLAIR          CLEAR     55  47  74 E5        30.29F
FREMONT        CLEAR     48  46  91 CALM      30.30S
MILLARD        CLEAR     49  48  96 CALM      30.30S
OFFUTT AFB     CLEAR     48  48 100 W2        30.29S
PLATTSMOUTH    CLEAR     49  46  90 CALM      30.30S
WAHOO          FAIR      45  43  91 CALM      30.30R
$$



USA.gov is the U.S. government's official web portal to all federal, state and local government web resources and services.